| time (UTC) | temp F | wind direction | speed MPH | gust MPH | rain 1hr in | rain 24hr in | rain mn in | humidity % | barometer mb |
| 20260507010026 | 45 | 339 | 7.0 | 11.0 | 0.00 | 0.24 | 0.24 | 50 | 1008.7 |
| 20260507004533 | 45 | 339 | 7.0 | 13.0 | 0.00 | 0.24 | 0.24 | 50 | 1008.3 |
| 20260507003025 | 45 | 329 | 7.0 | 12.0 | 0.00 | 0.24 | 0.24 | 50 | 1008.2 |
| 20260507001525 | 46 | 325 | 9.0 | 16.0 | 0.00 | 0.24 | 0.24 | 51 | 1007.9 |
| 20260507000025 | 47 | 312 | 11.0 | 15.0 | 0.00 | 0.24 | 0.24 | 49 | 1007.8 |
| 20260506234529 | 47 | 314 | 9.0 | 13.0 | 0.00 | 0.24 | 0.24 | 49 | 1007.5 |
| 20260506233015 | 48 | 321 | 7.0 | 12.0 | 0.00 | 0.24 | 0.24 | 48 | 1007.3 |
| 20260506231528 | 48 | 277 | 3.0 | 7.0 | 0.00 | 0.24 | 0.24 | 48 | 1007.1 |
| 20260506230011 | 48 | 355 | 2.0 | 4.0 | 0.00 | 0.25 | 0.24 | 47 | 1006.9 |
| 20260506224510 | 48 | 355 | 2.0 | 5.0 | 0.00 | 0.25 | 0.24 | 46 | 1006.8 |
| 20260506223007 | 47 | 356 | 0.0 | 2.0 | 0.00 | 0.25 | 0.24 | 46 | 1006.6 |
| 20260506221506 | 47 | 356 | 0.0 | 2.0 | 0.00 | 0.25 | 0.24 | 46 | 1006.5 |
| 20260506220006 | 47 | 356 | 0.0 | 4.0 | 0.00 | 0.25 | 0.24 | 46 | 1006.4 |
| 20260506214505 | 48 | 356 | 0.0 | 3.0 | 0.00 | 0.25 | 0.24 | 45 | 1006.3 |
| 20260506213004 | 47 | 356 | 0.0 | 3.0 | 0.00 | 0.25 | 0.24 | 44 | 1006.4 |
| 20260506211509 | 47 | 356 | 0.0 | 4.0 | 0.00 | 0.25 | 0.24 | 44 | 1006.3 |
| 20260506210002 | 47 | 356 | 2.0 | 5.0 | 0.00 | 0.25 | 0.24 | 44 | 1006.3 |
| 20260506204502 | 47 | 356 | 2.0 | 5.0 | 0.00 | 0.25 | 0.24 | 44 | 1006.3 |
| 20260506203001 | 47 | 357 | 2.0 | 5.0 | 0.00 | 0.25 | 0.24 | 44 | 1006.1 |
| 20260506201610 | 46 | 357 | 1.0 | 4.0 | 0.00 | 0.25 | 0.24 | 44 | 1006.3 |
| 20260506194614 | 46 | 358 | 2.0 | 5.0 | 0.00 | 0.25 | 0.24 | 45 | 1006.2 |
| 20260506193056 | 45 | 358 | 1.0 | 4.0 | 0.00 | 0.25 | 0.24 | 45 | 1005.9 |
| 20260506191556 | 45 | 357 | 3.0 | 8.0 | 0.01 | 0.25 | 0.24 | 45 | 1005.9 |
| 20260506190056 | 45 | 360 | 4.0 | 10.0 | 0.01 | 0.25 | 0.24 | 45 | 1006.0 |
| 20260506184607 | 45 | 353 | 5.0 | 9.0 | 0.01 | 0.25 | 0.24 | 45 | 1005.9 |
| 20260506183101 | 45 | 352 | 6.0 | 10.0 | 0.01 | 0.25 | 0.24 | 45 | 1005.8 |
| 20260506181553 | 45 | 360 | 4.0 | 9.0 | 0.00 | 0.24 | 0.23 | 45 | 1005.6 |
| 20260506180054 | 45 | 360 | 4.0 | 10.0 | 0.00 | 0.24 | 0.23 | 45 | 1005.6 |
| 20260506174552 | 45 | 3 | 4.0 | 8.0 | 0.00 | 0.24 | 0.23 | 45 | 1005.7 |
| 20260506173052 | 45 | 9 | 1.0 | 5.0 | 0.00 | 0.24 | 0.23 | 45 | 1005.4 |
| 20260506171549 | 46 | 9 | 2.0 | 4.0 | 0.00 | 0.24 | 0.23 | 45 | 1005.2 |
| 20260506170106 | 46 | 9 | 2.0 | 8.0 | 0.00 | 0.24 | 0.23 | 45 | 1004.9 |
| 20260506164545 | 46 | 26 | 1.0 | 9.0 | 0.00 | 0.24 | 0.23 | 45 | 1004.8 |
| 20260506163054 | 46 | 38 | 1.0 | 4.0 | 0.00 | 0.24 | 0.23 | 44 | 1004.9 |
| 20260506161544 | 46 | 37 | 2.0 | 8.0 | 0.00 | 0.24 | 0.23 | 45 | 1004.7 |
| 20260506160043 | 46 | 140 | 0.0 | 6.0 | 0.01 | 0.24 | 0.23 | 45 | 1004.8 |
| 20260506154543 | 45 | 140 | 0.0 | 5.0 | 0.02 | 0.24 | 0.23 | 45 | 1004.6 |
| 20260506153041 | 45 | 140 | 1.0 | 5.0 | 0.02 | 0.24 | 0.23 | 45 | 1004.7 |
| 20260506151544 | 45 | 140 | 0.0 | 5.0 | 0.03 | 0.24 | 0.23 | 45 | 1004.6 |
| 20260506150039 | 44 | 140 | 1.0 | 5.0 | 0.02 | 0.23 | 0.22 | 45 | 1004.5 |
| 20260506144550 | 44 | 140 | 1.0 | 5.0 | 0.01 | 0.22 | 0.21 | 45 | 1004.5 |
| 20260506143038 | 44 | 140 | 1.0 | 5.0 | 0.01 | 0.22 | 0.21 | 46 | 1004.1 |
| 20260506141537 | 44 | 140 | 0.0 | 6.0 | 0.01 | 0.21 | 0.20 | 46 | 1003.8 |
| 20260506140038 | 44 | 140 | 1.0 | 4.0 | 0.01 | 0.21 | 0.20 | 46 | 1003.7 |
| 20260506134536 | 43 | 140 | 1.0 | 5.0 | 0.02 | 0.21 | 0.20 | 46 | 1003.8 |
| 20260506133035 | 43 | 140 | 1.0 | 3.0 | 0.02 | 0.21 | 0.20 | 46 | 1003.6 |
| 20260506131535 | 43 | 133 | 2.0 | 8.0 | 0.02 | 0.20 | 0.19 | 46 | 1003.5 |
| 20260506130034 | 43 | 113 | 3.0 | 9.0 | 0.04 | 0.20 | 0.19 | 46 | 1003.5 |
| 20260506124532 | 43 | 138 | 1.0 | 8.0 | 0.04 | 0.19 | 0.18 | 46 | 1003.6 |
| 20260506123032 | 43 | 136 | 2.0 | 11.0 | 0.05 | 0.19 | 0.18 | 46 | 1003.7 |
| 20260506121529 | 43 | 134 | 2.0 | 7.0 | 0.05 | 0.18 | 0.17 | 46 | 1003.7 |
| 20260506120038 | 43 | 132 | 1.0 | 9.0 | 0.04 | 0.16 | 0.15 | 46 | 1003.8 |
| 20260506114526 | 43 | 136 | 4.0 | 11.0 | 0.05 | 0.15 | 0.14 | 46 | 1003.4 |
| 20260506113029 | 43 | 116 | 2.0 | 9.0 | 0.07 | 0.14 | 0.13 | 46 | 1003.2 |
| 20260506111522 | 43 | 115 | 4.0 | 11.0 | 0.12 | 0.13 | 0.12 | 46 | 1002.9 |
| 20260506110020 | 44 | 88 | 1.0 | 10.0 | 0.11 | 0.12 | 0.11 | 46 | 1003.2 |
| 20260506104517 | 44 | 75 | 3.0 | 11.0 | 0.09 | 0.10 | 0.09 | 46 | 1003.0 |
| 20260506103014 | 45 | 124 | 5.0 | 12.0 | 0.06 | 0.07 | 0.06 | 46 | 1003.2 |
| 20260506101513 | 45 | 101 | 5.0 | 11.0 | 0.00 | 0.01 | 0.00 | 45 | 1003.3 |
| 20260506100011 | 45 | 69 | 4.0 | 10.0 | 0.00 | 0.01 | 0.00 | 45 | 1003.4 |
| 20260506094509 | 45 | 123 | 2.0 | 13.0 | 0.00 | 0.01 | 0.00 | 45 | 1002.8 |
| 20260506093005 | 46 | 141 | 3.0 | 7.0 | 0.00 | 0.01 | 0.00 | 45 | 1003.0 |
| 20260506091513 | 46 | 111 | 1.0 | 7.0 | 0.00 | 0.01 | 0.00 | 45 | 1002.8 |
| 20260506090005 | 46 | 130 | 2.0 | 11.0 | 0.00 | 0.01 | 0.00 | 45 | 1002.8 |
| 20260506084502 | 46 | 98 | 4.0 | 10.0 | 0.00 | 0.01 | 0.00 | 44 | 1003.1 |
| 20260506083100 | 47 | 155 | 4.0 | 11.0 | 0.00 | 0.01 | 0.00 | 44 | 1002.9 |
| 20260506081607 | 47 | 89 | 3.0 | 10.0 | 0.00 | 0.01 | 0.00 | 45 | 1002.9 |
| 20260506073059 | 47 | 126 | 2.0 | 5.0 | 0.00 | 0.01 | 0.00 | 45 | 1003.5 |
| 20260506071554 | 47 | 90 | 1.0 | 11.0 | 0.00 | 0.01 | 0.00 | 45 | 1002.9 |
| 20260506061556 | 48 | 148 | 0.0 | 4.0 | 0.00 | 0.01 | 0.00 | 44 | 1002.8 |
| 20260506044543 | 48 | 131 | 1.0 | 5.0 | 0.00 | 0.01 | 0.00 | 45 | 1004.4 |
| 20260506043038 | 48 | 130 | 1.0 | 5.0 | 0.00 | 0.01 | 0.00 | 46 | 1004.5 |
| 20260506041529 | 47 | 126 | 0.0 | 4.0 | 0.00 | 0.01 | 0.00 | 46 | 1004.6 |
| 20260506040024 | 48 | 122 | 0.0 | 4.0 | 0.00 | 0.01 | 0.01 | 46 | 1004.4 |
| 20260506034526 | 48 | 99 | 1.0 | 4.0 | 0.00 | 0.01 | 0.01 | 46 | 1004.4 |
| 20260506033022 | 47 | 93 | 0.0 | 4.0 | 0.00 | 0.01 | 0.01 | 46 | 1004.8 |
| 20260506031520 | 47 | 93 | 0.0 | 4.0 | 0.00 | 0.01 | 0.01 | 47 | 1004.7 |
| 20260506030024 | 48 | 358 | 1.0 | 4.0 | 0.00 | 0.01 | 0.01 | 47 | 1004.7 |
| 20260506024537 | 48 | 358 | 0.0 | 3.0 | 0.00 | 0.01 | 0.01 | 47 | 1004.6 |
| 20260506023016 | 48 | 358 | 0.0 | 3.0 | 0.00 | 0.01 | 0.01 | 48 | 1004.7 |
| 20260506021516 | 48 | 358 | 0.0 | 3.0 | 0.00 | 0.01 | 0.01 | 48 | 1005.1 |
| 20260506020016 | 48 | 358 | 0.0 | 2.0 | 0.00 | 0.01 | 0.01 | 48 | 1005.2 |
| 20260506014513 | 48 | 358 | 1.0 | 3.0 | 0.00 | 0.01 | 0.01 | 48 | 1005.0 |
| 20260506013013 | 48 | 358 | 0.0 | 3.0 | 0.00 | 0.01 | 0.01 | 48 | 1004.8 |
| 20260506011508 | 49 | 358 | 0.0 | 2.0 | 0.00 | 0.01 | 0.01 | 48 | 1004.4 |